Martinsburg, WV

10:47 PM EST on December 13, 2019 (GMT -0500)
Eastern W Va Regional-Shepherd

Weather History for KMRB - October, 2019

Change the Weather History Date:

Monday, October 14, 2019

  Actual Average Record
Temperature  
Mean Temperature 54 °F 54 °F  
Max Temperature 73 °F 66 °F 90 °F (1928)
Min Temperature 35 °F 43 °F 26 °F (1988)
Degree Days  
Heating Degree Days 11 11  
Month to date heating degree days 124  
Since 1 July heating degree days 215  
Cooling Degree Days 0 0  
Month to date cooling degree days 8  
Year to date cooling degree days 893  
Growing Degree Days 4 (Base 50)    
Moisture  
Dew Point 38 °F    
Average Humidity 62    
Maximum Humidity 97    
Minimum Humidity 24    
Precipitation  
Precipitation 0.00 in 0.10 in 1.50 in (1942)
Month to date precipitation 1.42  
Year to date precipitation 31.23  
Sea Level Pressure  
Sea Level Pressure 30.01 in    
Wind  
Wind Speed 3 mph ()    
Max Wind Speed 20 mph    
Max Gust Speed 25 mph    
Visibility 9.4 miles    
Events      
T = Trace of Precipitation, MM = Missing Value Source: Averaged Metar Reports

Daily Weather History Graph

Daily Weather History Graph

Search for Another Location

Airport or City:

Astronomy

Oct. 14, 2019 Rise Set
Actual Time 7:20 AM EDT 6:34 PM EDT
Civil Twilight 6:53 AM EDT 7:01 PM EDT
Nautical Twilight 6:22 AM EDT 7:32 PM EDT
Astronomical Twilight 5:51 AM EDT 8:03 PM EDT
Moon 7:23 PM EDT 7:50 AM EDT
Length of Visible Light 12h 08m
Length of Day
11h 14m
Waxing Gibbous, 99% of the Moon is Illuminated
Oct 14
Waxing Gibbous
Oct 21
Last Quarter
Oct 27
New
Nov 4
First Quarter
Nov 12
Full

Hourly Weather History & Observations

Time (EDT) Temp. Windchill Dew Point Humidity Pressure Visibility Wind Dir Wind Speed Gust Speed Precip Events Conditions
12:53 AM 42.1 °F - 41.0 °F 96% 30.00 in 10.0 mi Calm Calm - N/A   Clear
1:53 AM 41.0 °F - 39.9 °F 96% 29.99 in 9.0 mi Calm Calm - N/A   Clear
2:53 AM 39.9 °F 37.8 °F 37.9 °F 93% 29.99 in 8.0 mi WSW 3.5 mph - N/A   Clear
3:53 AM 41.0 °F - 39.0 °F 93% 29.98 in 10.0 mi Calm Calm - N/A   Clear
4:53 AM 37.9 °F - 36.0 °F 93% 29.99 in 7.0 mi Calm Calm - N/A   Clear
5:53 AM 36.0 °F - 35.1 °F 97% 30.00 in 7.0 mi Calm Calm - N/A   Clear
6:53 AM 35.1 °F - 34.0 °F 96% 30.01 in 7.0 mi Calm Calm - N/A   Clear
7:53 AM 36.0 °F 33.3 °F 35.1 °F 97% 30.03 in 8.0 mi South 3.5 mph - N/A   Clear
8:53 AM 44.1 °F - 43.0 °F 96% 30.04 in 9.0 mi Calm Calm - N/A   Clear
9:53 AM 53.1 °F - 46.9 °F 80% 30.05 in 10.0 mi Calm Calm - N/A   Clear
10:53 AM 62.1 °F - 46.9 °F 58% 30.04 in 10.0 mi Calm Calm - N/A   Clear
11:53 AM 68.0 °F - 37.9 °F 33% 30.03 in 10.0 mi West 19.6 mph 25.3 mph N/A   Clear
12:53 PM 69.1 °F - 37.0 °F 31% 30.01 in 10.0 mi WSW 18.4 mph 24.2 mph N/A   Clear
1:53 PM 72.0 °F - 37.9 °F 29% 29.98 in 10.0 mi WSW 17.3 mph 25.3 mph N/A   Clear
2:53 PM 73.0 °F - 37.0 °F 27% 29.95 in 10.0 mi Variable 6.9 mph - N/A   Clear
3:53 PM 73.0 °F - 37.0 °F 27% 29.95 in 10.0 mi WSW 8.1 mph - N/A   Clear
4:53 PM 73.0 °F - 34.0 °F 24% 29.95 in 10.0 mi West 11.5 mph - N/A   Clear
5:53 PM 71.1 °F - 35.1 °F 27% 29.96 in 10.0 mi West 11.5 mph - N/A   Clear
6:53 PM 66.9 °F - 37.0 °F 33% 29.99 in 10.0 mi WNW 9.2 mph - N/A   Clear
7:53 PM 64.9 °F - 37.9 °F 37% 30.02 in 10.0 mi WNW 9.2 mph - N/A   Clear
8:53 PM 57.9 °F - 37.9 °F 47% 30.04 in 10.0 mi West 5.8 mph - N/A   Clear
9:53 PM 55.0 °F - 39.0 °F 55% 30.06 in 10.0 mi Calm Calm - N/A   Clear
10:53 PM 52.0 °F - 39.0 °F 61% 30.08 in 10.0 mi Calm Calm - N/A   Clear
11:53 PM 50.0 °F - 39.9 °F 68% 30.09 in 10.0 mi Calm Calm - N/A   Clear